Flag for U.S.A. Weather past 2 weeks in Portland, Oregon, U.S.A.

Now
67 °F

Passing clouds.


Feels Like: 67 °F
Forecast: 66 / 96 °F
Wind: 5 mph from Northwest

Location: Portland International Airport

Current Time: Jul 5, 2015 at 6:31:31 AM

Latest Report: Jul 5, 2015 at 5:53 AM


Visibility: 10 mi

Pressure: 29.81 "Hg

Humidity: 68%

Dew point: 56 °F

Location of PortlandLocation

Historic Weather in Portland — Graph

°F

Portland temperature yesterday

Maximum temperature yesterday: 95 °F (at 5:53 PM)
Minimum temperature yesterday: 60 °F (at 4:53 AM)
Average temperature yesterday: 77 °F

Past Weeks' High & Low Weather Summary

 TemperatureHumidityPressure
High97 °F (Jul 2, 3:53 PM)86% (Jun 30, 3:53 AM)30.16 "Hg (Jun 30, 3:53 AM)
Low53 °F (Jun 20, 5:53 AM)19% (Jun 20, 2:53 PM)29.71 "Hg (Jul 4, 6:53 PM)
Average75 °F53%29.97 "Hg
* Reported Jun 20 4:53 AM — Jul 5 4:53 AM, Portland, Weather by CustomWeather, © 2015

Note: Actual official high and low records may vary slightly from our data, if they occured in-between our weather recording intervals... More about our weather records

Advertising

Portland weather history for previous 24 hours

 ConditionsComfort  
Time TempWeatherWind HumidityBarometerVisibility
4:53 AM
Sun, Jul 5
69 °FClear.3 mph63%29.80 "Hg10 mi
3:53 AM71 °FClear.No wind59%29.79 "Hg10 mi
2:53 AM72 °FClear.No wind73%29.77 "Hg10 mi
1:53 AM74 °FClear.No wind60%29.76 "Hg10 mi
12:53 AM75 °FClear.5 mph58%29.76 "Hg10 mi
11:53 PM
Sat, Jul 4
76 °FPassing clouds.6 mph56%29.75 "Hg7 mi
10:53 PM80 °FPassing clouds.6 mph47%29.76 "Hg9 mi
9:53 PM85 °FScattered clouds.6 mph42%29.75 "Hg10 mi
8:53 PM87 °FPartly sunny.6 mph42%29.73 "Hg10 mi
7:53 PM91 °FScattered clouds.7 mph33%29.71 "Hg10 mi
6:53 PM94 °FScattered clouds.6 mph29%29.71 "Hg10 mi
5:53 PM95 °FScattered clouds.8 mph24%29.72 "Hg10 mi
4:53 PM94 °FScattered clouds.9 mph26%29.73 "Hg10 mi
3:53 PM93 °FScattered clouds.9 mph24%29.76 "Hg10 mi
2:53 PM91 °FPassing clouds.6 mph28%29.78 "Hg10 mi
1:53 PM87 °FPassing clouds.5 mph35%29.80 "Hg10 mi
12:53 PM84 °FPassing clouds.3 mph36%29.82 "Hg10 mi
11:53 AM80 °FPassing clouds.3 mph38%29.84 "Hg10 mi
10:53 AM76 °FPassing clouds.No wind45%29.86 "Hg10 mi
9:53 AM71 °FPassing clouds.5 mph55%29.88 "Hg10 mi
8:53 AM67 °FPassing clouds.6 mph66%29.89 "Hg10 mi
7:53 AM65 °FPassing clouds.3 mph66%29.89 "Hg10 mi
6:53 AM62 °FPassing clouds.5 mph75%29.89 "Hg10 mi
Weather by CustomWeather, © 2015

See weather overviewHow to use our weather pages